TimeEST,TemperatureF,Dew PointF,Humidity,Sea Level PressureIn,VisibilityMPH,Wind Direction,Wind SpeedMPH,Gust SpeedMPH,PrecipitationIn,Events,Conditions,WindDirDegrees,DateUTC
12:15 AM,43.7,37.8,80,29.77,10.0,South,13.8,-,0.01,Rain,Light Rain,180,2013-02-19 05:15:00
12:35 AM,44.2,37.4,77,29.77,7.0,SSW,24.2,-,0.02,Rain,Rain,200,2013-02-19 05:35:00
12:55 AM,43.3,37.8,81,29.78,7.0,South,19.6,26.5,0.05,Rain,Light Rain,190,2013-02-19 05:55:00
1:35 AM,42.8,37.8,82,29.74,10.0,South,20.7,26.5,0.02,Rain,Light Rain,180,2013-02-19 06:35:00
1:55 AM,42.3,38.3,86,29.72,10.0,South,20.7,26.5,0.03,,Overcast,170,2013-02-19 06:55:00
2:15 AM,42.4,38.3,85,29.72,10.0,South,20.7,29.9,N/A,Rain,Light Rain,180,2013-02-19 07:15:00
2:35 AM,42.1,38.3,86,29.70,10.0,South,19.6,26.5,N/A,Rain,Light Rain,170,2013-02-19 07:35:00
2:55 AM,41.9,38.7,88,29.69,10.0,South,18.4,23.0,0.01,Rain,Light Rain,170,2013-02-19 07:55:00
3:15 AM,41.5,38.5,89,29.68,10.0,South,16.1,24.2,N/A,,Overcast,170,2013-02-19 08:15:00
3:35 AM,41.9,38.3,87,29.68,10.0,South,18.4,26.5,N/A,,Overcast,170,2013-02-19 08:35:00
3:55 AM,41.7,37.9,86,29.67,10.0,South,16.1,26.5,N/A,,Overcast,170,2013-02-19 08:55:00
4:15 AM,41.9,38.3,87,29.67,10.0,South,16.1,24.2,N/A,Rain,Light Rain,180,2013-02-19 09:15:00
4:35 AM,42.1,38.5,87,29.66,10.0,North,-9999.0,-,N/A,Rain,Light Rain,0,2013-02-19 09:35:00
4:55 AM,42.6,38.7,86,29.66,10.0,South,20.7,-,N/A,,Overcast,190,2013-02-19 09:55:00
5:15 AM,42.6,38.7,86,29.66,10.0,North,-9999.0,-,N/A,,Overcast,0,2013-02-19 10:15:00
5:35 AM,42.8,38.3,84,29.65,10.0,South,21.9,-,N/A,,Overcast,190,2013-02-19 10:35:00
5:55 AM,42.8,38.3,84,29.66,10.0,South,24.2,-,N/A,,Overcast,190,2013-02-19 10:55:00
6:15 AM,42.3,38.5,86,29.68,7.0,SW,28.8,36.8,0.01,Rain,Rain,220,2013-02-19 11:15:00
6:55 AM,32.9,32.0,96,29.71,1.5,WSW,13.8,-,0.04,Snow,Light Snow,240,2013-02-19 11:55:00
7:15 AM,32.5,32.0,98,29.72,1.0,WSW,12.7,20.7,N/A,Snow,Light Snow,240,2013-02-19 12:15:00
7:50 AM,33.8,32.0,93,29.73,8.0,WSW,19.6,28.8,N/A,,Overcast,240,2013-02-19 12:50:00
8:26 AM,33.8,30.2,87,29.76,10.0,WSW,20.7,28.8,N/A,,Overcast,240,2013-02-19 13:26:00
8:55 AM,32.0,28.4,87,29.77,10.0,WSW,20.7,28.8,N/A,,Overcast,240,2013-02-19 13:55:00
9:50 AM,30.2,24.8,80,29.80,10.0,WSW,18.4,25.3,N/A,,Overcast,250,2013-02-19 14:50:00
10:50 AM,30.2,24.8,80,29.81,10.0,WSW,15.0,23.0,N/A,,Overcast,250,2013-02-19 15:50:00
11:58 AM,30.2,24.8,80,29.83,7.0,West,17.3,24.2,N/A,Snow,Light Snow,260,2013-02-19 16:58:00
12:50 PM,28.4,23.0,80,29.83,5.0,WSW,13.8,21.9,N/A,Snow,Light Snow,250,2013-02-19 17:50:00
3:47 PM,28.4,21.2,74,29.88,5.0,WSW,25.3,32.2,N/A,Snow,Light Snow,240,2013-02-19 20:47:00
4:08 PM,28.4,19.4,69,29.90,7.0,West,19.6,29.9,N/A,,Overcast,260,2013-02-19 21:08:00
4:47 PM,26.6,17.6,69,29.92,7.0,WSW,17.3,25.3,N/A,,Overcast,250,2013-02-19 21:47:00
4:55 PM,26.6,17.6,69,29.92,7.0,WSW,12.7,23.0,N/A,Snow,Light Snow,250,2013-02-19 21:55:00
5:47 PM,26.6,21.2,80,29.92,2.0,WSW,17.3,23.0,N/A,Snow,Light Snow,240,2013-02-19 22:47:00
6:20 PM,24.8,19.4,80,29.97,7.0,West,15.0,25.3,N/A,,Overcast,260,2013-02-19 23:20:00
7:25 PM,24.8,17.6,74,30.00,5.0,West,13.8,23.0,N/A,Snow,Light Snow,260,2013-02-20 00:25:00
8:35 PM,23.5,17.2,77,30.02,10.0,West,12.7,21.9,N/A,,Overcast,260,2013-02-20 01:35:00
8:55 PM,23.5,14.5,69,30.02,10.0,WSW,16.1,23.0,N/A,,Overcast,250,2013-02-20 01:55:00
9:15 PM,23.0,13.8,68,30.03,10.0,West,21.9,31.1,N/A,,Overcast,260,2013-02-20 02:15:00
9:35 PM,23.0,13.3,66,30.03,10.0,West,19.6,29.9,N/A,,Overcast,260,2013-02-20 02:35:00
9:55 PM,23.0,13.8,68,30.04,10.0,West,16.1,23.0,N/A,,Overcast,260,2013-02-20 02:55:00
10:15 PM,22.8,14.7,71,30.05,10.0,West,15.0,20.7,N/A,Snow,Light Snow,280,2013-02-20 03:15:00
10:35 PM,22.1,15.3,75,30.05,7.0,West,16.1,21.9,N/A,Snow,Light Snow,270,2013-02-20 03:35:00
10:55 PM,21.7,16.2,79,30.04,4.0,WSW,15.0,23.0,N/A,Snow,Light Snow,250,2013-02-20 03:55:00
11:15 PM,22.1,13.5,69,30.05,10.0,West,11.5,26.5,N/A,,Overcast,270,2013-02-20 04:15:00
11:35 PM,22.1,13.8,70,30.05,10.0,West,15.0,20.7,N/A,Snow,Light Snow,260,2013-02-20 04:35:00
11:55 PM,22.1,14.0,71,30.05,10.0,West,12.7,23.0,N/A,Snow,Light Snow,270,2013-02-20 04:55:00